Location: Baia de Cri?
(46.1667°N, 22.7167°E)
Time: 21:11:21
(UTC+00:00)

Cosmos 1805 Rocket - Pass Details

Date: 15 January 2026
Orbit: 599 x 623 km, 82.5° (Epoch: 10 February)

Event Time Altitude Azimuth Distance (km) Brightness Sun altitude
Rises 04:25:30 0° 198° (SSW) 2,891 6.9 -17.2°
Reaches altitude 10° 04:27:45 10° 203° (SSW) 1,989 6.1 -16.9°
Maximum altitude 04:32:05 56° 282° (WNW) 744 3.6 -16.1°
Drops below altitude 10° 04:36:27 10° 1° (N) 1,998 6.0 -15.4°
Sets 04:38:44 0° 6° (N) 2,906 6.9 -15.0°
